sat.trackr.live / text

‹ back to catalog

STARLINK-3315

NORAD 50848 · 2022-001AX

PAYLOAD ACTIVE UNKNOWN

§ Identity

Operator
Country
US
Launch date
2022-01-06
Launch site
AFETR
Launch vehicle
Mass (kg)
RCS (m²)

Purposes: comms

External: N2YO · Heavens-Above · Gunter

§ Orbital elements

Epoch: 2026-09-19T21:36:51.020064Z

Period
93.85 min
Inclination
53.1616°
Eccentricity
0.0001219
Mean motion
15.34388404 rev/d
Perigee alt
461.9 km
Apogee alt
463.6 km
Semi-major
6,840.9 km
B*
3.6519e-5
RAAN
12.8749°
Arg perigee
77.9070°
Mean anomaly
282.2069°
Rev number
25,978

§ Raw data

STARLINK-33151 50848U 22001AX  26262.90059051  .00000857  00000+0  36519-4 0  99942 50848  53.1616  12.8749 0001219  77.9070 282.2069 15.34388404259783

JSON: /api/v1/satellites/50848 · /tle

For live sub-satellite position, see the globe view (requires WebGL).

§ Visibility from observer

Set your observer location to see the next 7 days of passes ≥ 10°. The values pass through the URL so the page stays shareable.

No JS? Fill the form by hand. The geolocation button needs JavaScript.